Погода в Мариуполе

Погода в Мариуполе : погода сейчас, прогноз погоды и архив. Всё, что Вы хотите узнать о погоде в Мариуполе!

Поиск расширенной информации на нашем сайте:

Другие новости

Новости СМИ2

Главная страница сайта

Новости сайта

02.10.2013

Напоминаем, что на нашем новом сайте вы можете получить высокодетализированные прогнозы погоды по пунктам России, СНГ и мира (включающие важные для авиации метеовеличины, такие как направление и скорость ветра, видимость, явления погоды, количество и форма облачности, нижняя и верхняя граница облачности), а также ознакомиться с разнообразными материалами по авиационной метеорологии и подборкой полезных ссылок на эту тему.

Сайт Метеоцентр.Азия посвящён разработке технологий оптимизации авиаметеорологического обслуживания, включая проектирование и перспективное создание нескольких автоматизированных авиаметеорологических систем:
- система выпуска высокодетальных прогностических карт явлений погоды для нижнего воздушного пространства по России и ближнему зарубежью;
- система верификации прогнозов TAF (выпускаемых синоптиками официальных АМСГ РФ и ближнего зарубежья) и AUTOTAF (выпускаемых сайтом Метеоцентр.Азия) - выявление ошибок, онлайн-сопоставление с фактической погодой METAR, автоматическое внесение коррективов в прогнозы при резком отклонении фактической погоды от прогноза, подсчёт оправдываемости прогнозов по элементам и в целом;
- система обработки, анализа и отображения авиаметеорологической информации для применения провайдерами метеорологической информации.

Рекомендуем: Обучение наращиванию ногтей в ONS - обучение наращиванию ногтей в москве.

Погода в Мариуполе - сегодня

Время (UTC), дата Ветер
(°,м/с) 
Видим.   Явления Облачность Т
(°С)
Тd
(°С)
f(%) Тe
(°С)
Pmin
(гПа)
dP
(гПа)
Po
(мм)
O2
(г/м3)
Тmin Tmax R s Состояние
почвы
12 25.02.15 090 (В) 20000 м    3/0 верхняя 
[Ci fib]
+2.1 -1.9 75 -1  1017.3  -0.3  756  303           
15 25.02.15 070 (В) 20000 м    4/4 600 м 
[Sc]
+5.2 -1.7 61 +2  1017.4  0.2  757  299           
18 25.02.15 090 (В) 20000 м    8/0 средняя 
[Ac trans]
+2.9 -1.3 74 -1  1019.3  1.8  758  302    +6       
21 25.02.15 070 (В) 20000 м    4/0 верхняя 
[Ci fib]
+2.4 -2.6 70 -1  1020  0.7  758  303           
00 26.02.15 070 (В) 20000 м    6/0 верхняя 
[Ci]
+1.2 -2 79 -3  1020.7  0.6  759  305           
06 26.02.15 090 (В) 10 км    10/10 400 м 
[St]
+1 -0.4 90 -3  1023.5  1.2  761  306  +0         
09 26.02.15 090 (В) 10 км    10/10 360 м 
[St]
+2 -1.1 80 -2  1024.3  0.8  762  305           
12 26.02.15 090 (В) 10 км  слаб. дождь  10/9 300 м средняя 
[Frnb|As op]
+2.8 +0.1 82 1024.3  762  304      0.1     
15 26.02.15 090 (В) 20000 м  {дождь, морось}  10/10 500 м 
[Frnb|Ns]
+3.3 -1.2 72 +2  1024.8  0.6  762  304           
18 26.02.15 080 (В) 20000 м  {дождь, морось}  10/9 360 м средняя 
[Frnb|As op]
+3.4 -1 73 +3  1025.6  0.8  763  304    +3.6  0.2     
21 26.02.15 060 (СВ) 10 км    10/6 270 м средняя 
[St|As op]
+3.6 -0.5 75 +3  1025.8  0.2  763  303           
00 27.02.15 050 (СВ) 4000 м  дымка{дождь}  3/0 верхняя 
[Cs]
+4.1 +2.1 87 +4  1025.3  -0.5  762  302      0.0     
03 27.02.15 070 (В) 4000 м  дымка  5/0 средняя 
[Ac trans]
+2.8 +0.9 87 1025.4  762  304           
06 27.02.15 070 (В) 4000 м  дымка{дождь}  8/0 средняя 
[Ac cast]
+2.9 -0.4 79 +1  1025.2  -0.2  762  304  +1.9    0.0     
09 27.02.15 070 (В) 10 км    9/0 средняя 
[Ac und]
+3.3 -1.8 69 1024.3  -0.8  762  303           
12 27.02.15 070 (В) 20000 м    4/0 средняя, верхняя 
[Ac trans|Ci fib]
+6.4 -1.4 57 +4  1021.7  -2.5  760  299           
15 27.02.15 090 (В) 10 км    8/0 средняя, верхняя 
[Ac trans|Cs]
+6 -0.6 63 +3  1020.4  -1.3  759  299           
18 27.02.15 070 (В) 10 км    4/0 верхняя 
[Ci fib]
+4.6 -0.5 69 +1  1020.2  -0.3  759  301    +6.8       
21 27.02.15 090 (В) 4000 м  дымка  10/0 средняя 
[As op]
+2.5 +0.3 85 -1  1018.7  -1.5  758  302           
00 28.02.15 070 (В) 4000 м  дымка  10/10 960 м 
[Sc]
+3 +0.6 84 -1  1016.9  -1.8  756  301           
03 28.02.15 070 (В) 4000 м  дымка  10/10 870 м 
[Sc]
+2.7 +0 82 -1  1015.7  -1.2  755  301           
06 28.02.15 040 (СВ) 10  10 км    10/10 450 м 
[St]
+2.2 -0.6 82 -2  1015.3  -0.4  755  302  +2         
09 28.02.15 090 (В) 20000 м    10/10 480 м 
[St]
+2.5 -0.5 81 -1  1014.9  -0.4  755  301           
12 28.02.15 060 (СВ) 20000 м    10/10 570 м 
[Sc]
+3.2 -1.9 69 1014.7  -0.2  755  301           
15 28.02.15 070 (В) 10 км    10/10 630 м 
[Sc]
+2.8 -1.4 74 -1  1015.1  0.4  755  301           
Время (UTC), дата Ветер
(°,м/с) 
Видим.   Явления Облачность Т
(°С)
Тd
(°С)
f(%) Тe
(°С)
Pmin
(гПа)
dP
(гПа)
Po
(мм)
O2
(г/м3)
Тmin Tmax R s Состояние
почвы

Для получения пояснительной информации подведите курсор к названию столбца.

ПОГОДА в Мариуполе - архив

Всё, что Вы хотите узнать о погоде в Мариуполе - удобно и подробно!

Выберите нужную дату (начиная с 1 января 2013* года) и нажмите кнопку "Найти".
Будут отображены архивные сводки погоды по пункту Мариуполь, начиная с указанной даты.


Отображать данные в формате CSV (для использования в таблицах Excel)


Внимание! Наш архив погоды предназначен исключительно для личного некоммерческого использования в познавательных целях. Если Вам необходимы официальные справки о состоянии погоды (для производственных, юридических, коммерческих и т.п. целей), обращайтесь в органы Росгидромета.

*Примечание: данная дата относится к архиву по метеостанциям СССР (Россия, СНГ, Балтия).
Архив по метеостанциям Зарубежной Европы и Азии (кроме Китая) хранится 10 дней, по другим регионам земного шара (Китай, Африка, Америка, Австралия, Океания) - 1 день.

Мариуполь - район местоположения метеостанции


Название, широта, долгота, высота метеостанции:
Мариуполь (город) 47°ш. 37.5°д. 70 м над ур. моря [Украина]

Дополнительная информация

В oтличие oт бoльшинства пoгoдных сайтoв мы публикуем пoдрoбную метеoинфoрмацию в детальнoм прoфессиoнальнoм фoрмате.

Характеристики температуры и влажнoсти вoздуха измеряются на высoте 2 м в тени вдали oт зданий и деревьев.
Скoрoсть ветра измеряется на высoте 10 м (на урoвне рoста челoвека скoрoсть ветра ниже в 1.5-2 раза). Если метеoстанция нахoдится в гoрoде или в лесу, тo скoрoсть ветра занижена на 2-4 м/с пo сравнению с oткрытым местoм. Скoрoсть ветра над акватoриями крупных рек и oзёр, а также на вершинах хoлмoв на 2-5 м/с выше, чем в oбычных услoвиях.
Атмoсфернoе давление в разных тoчках местнoсти мoжет значительнo oтличаться oт давления на метеoстанции, в зависимoсти oт услoвий рельефа (при пoдъёме на 10 м давление пoнижается примернo на 1 мм рт.ст.).